Skip Page Navigation
NASA JPL Caltech
NASA Logo - Jet Propulsion Laboratory + View the NASA Portal
+ Center for Near-Earth Object Studies
JPL Home Earth Solar System Stars & Galaxies Technology
JPL Solar System Dynamics
BODIES ORBITS EPHEMERIDES TOOLS PHYSICAL DATA DISCOVERY FAQ SITE MAP
JPL Small-Body Database Browser
Search: [ help ]  
C/1902 X1 (Giacobini)
Classification: Hyperbolic Comet          SPK-ID: 1000948
Ephemeris | Orbit Diagram | Orbital Elements ]

[ show orbit diagram ]
Orbital Elements at Epoch 2416121.5 (1903-Jan-07.0) TDB
Reference: JPL 3 (heliocentric ecliptic J2000)
 Element Value Uncertainty (1-sigma)   Units 
e 1.000033194950607 0.00011644  
a -83546.81094010634 2.9307e+05 au
q 2.77333226252424 9.4399e-05 au
i 43.89346648823357 0.0016794 deg
node 118.8115484758322 0.0005786 deg
peri 5.836346792348269 0.0054998 deg
M -3.101621195952772E-6 1.632e-05 deg
tp 2416197.494033800502
(1903-Mar-23.99403380)
0.017864 TDB
period n/a
n/a
n/a
n/a
d
yr
n 4.081400921676411E-8 2.1475e-07 deg/d
Q n/a n/a au
  Orbit Determination Parameters
   # obs. used (total)      12  
   data-arc span      131 days  
   first obs. used      1902-12-11  
   last obs. used      1903-04-21  
   planetary ephem.      DE441  
   SB-pert. ephem.      SB441-N16  
   norm. resid. RMS      1.0755  
   source      ORB  
   producer      Otto Matic  
   solution date      2021-May-03 17:43:15  

Additional Information
 Earth MOID = 1.79177 au 
 Jupiter MOID = 2.44798 au 
 T_jup = 1.489 
[ show covariance matrix ]

Ephemeris | Orbit Diagram | Orbital Elements ]

no physical parameters available
Ephemeris | Orbit Diagram | Orbital Elements ]
ABOUT SSD CREDITS/AWARDS PRIVACY/COPYRIGHT GLOSSARY LINKS
FirstGov 2021-Jun-18 22:24 UT
(server date/time)  
NASA Home Page
Site Manager:   Ryan S. Park
Webmaster  Alan B. Chamberlin